Date String (YYYY-MM-DD hh:mm:ss) UTC,Instrument flags,absolute air pressure of the measurement (hPa),sample flow rate (lpm),inlet stack bypass flow (lpm),air temperature of the measurement (°C),ambient temperature measured by the external sensor (°C),aerosol sample conditioner tube jacket temperature (°C),OPC LED temperature (°C),internal box temperature (°C),relative humidity of the measurement (%),span deviation,mass concentration of particles derived from Lorenz-Mie calculation of OPC scattering (μg/m³),mass concentration of particles derived from Lorenz-Mie calculation of OPC scattering (μg/m³),mass concentration of particles derived from Lorenz-Mie calculation of OPC scattering (μg/m³)
DateTimeUTC,F1_M11,P_M11,Q1_M11,Q2_M11,T1_M11,T2_M11,T3_M11,T4_M11,T5_M11,U1_M11,ZSPAN_M11,X2_M11,X0_M11,X1_M11
2023-05-31 07:00:00,SystemResetWarning,0830.2,5.01,000.00,029.7,027.7,000.0,038.2,031.2,20.9,0000.0,0003.71,0011.51,0002.30
2023-05-31 07:01:00,SystemResetWarning,0830.3,5.01,000.00,029.7,027.7,000.0,038.2,031.1,20.9,0000.0,0003.75,0011.41,0002.33
2023-05-31 07:02:00,SystemResetWarning,0830.3,5.00,000.00,029.7,027.7,000.0,038.2,031.1,20.9,0000.0,0003.78,0012.58,0002.34
2023-05-31 07:03:00,SystemResetWarning,0830.3,5.00,000.00,029.6,027.7,000.0,038.2,031.1,21.0,0000.0,0003.76,0013.45,0002.33
2023-05-31 07:04:00,SystemResetWarning,0830.3,5.00,000.00,029.6,027.7,000.0,038.1,031.1,21.0,0000.0,0003.81,0013.93,0002.33
2023-05-31 07:05:00,SystemResetWarning,0830.3,4.99,000.00,029.6,027.7,000.0,038.1,031.1,21.0,0000.0,0003.86,0014.07,0002.35
2023-05-31 07:06:00,SystemResetWarning,0830.3,5.00,000.00,029.6,027.7,000.0,038.1,031.1,21.0,0000.0,0003.87,0013.41,0002.33
2023-05-31 07:07:00,SystemResetWarning,0830.3,5.01,000.00,029.6,027.7,000.0,038.1,031.1,21.0,0000.0,0003.91,0014.01,0002.35
2023-05-31 07:08:00,SystemResetWarning,0830.3,4.99,000.00,029.6,027.8,000.0,038.1,031.1,20.9,0000.0,0003.95,0014.76,0002.34
2023-05-31 07:09:00,SystemResetWarning,0830.3,5.00,000.00,029.6,027.8,000.0,038.1,031.1,20.8,0000.0,0003.95,0015.04,0002.36
2023-05-31 07:10:00,SystemResetWarning,0830.3,5.00,000.00,029.6,027.9,000.0,038.1,031.1,20.8,0000.0,0003.98,0015.09,0002.37
2023-05-31 07:11:00,SystemResetWarning,0830.3,5.00,000.00,029.6,027.8,000.0,038.1,031.1,20.9,0000.0,0003.99,0014.89,0002.35
2023-05-31 07:12:00,SystemResetWarning,0830.3,5.00,000.00,029.6,027.8,000.0,038.0,031.1,21.0,0000.0,0003.96,0014.96,0002.33
2023-05-31 07:13:00,SystemResetWarning,0830.3,5.00,000.00,029.6,027.8,000.0,038.0,031.1,21.0,0000.0,0003.95,0013.84,0002.32
2023-05-31 07:14:00,SystemResetWarning,0830.3,5.00,000.00,029.6,027.8,000.0,038.0,031.1,21.0,0000.0,0003.96,0013.55,0002.33
2023-05-31 07:15:00,SystemResetWarning,0830.3,5.00,000.00,029.6,027.8,000.0,038.0,031.1,21.1,0000.0,0003.99,0013.52,0002.35
2023-05-31 07:16:00,SystemResetWarning,0830.3,5.00,000.00,029.6,027.8,000.0,038.0,031.1,21.1,0000.0,0003.97,0013.57,0002.34
2023-05-31 07:17:00,SystemResetWarning,0830.3,5.00,000.00,029.6,027.9,000.0,038.0,031.1,21.0,0000.0,0003.94,0013.59,0002.33
2023-05-31 07:18:00,SystemResetWarning,0830.3,5.00,000.00,029.6,027.9,000.0,038.0,031.1,20.8,0000.0,0003.91,0013.09,0002.32
2023-05-31 07:19:00,SystemResetWarning,0830.3,5.00,000.00,029.6,027.9,000.0,038.0,031.1,20.7,0000.0,0003.88,0012.31,0002.32
2023-05-31 07:20:00,SystemResetWarning,0830.3,5.00,000.00,029.6,027.8,000.0,038.0,031.1,20.7,0000.0,0003.89,0012.13,0002.33
2023-05-31 07:21:00,SystemResetWarning,0830.3,5.00,000.00,029.6,027.8,000.0,038.0,031.1,20.6,0000.0,0003.85,0012.94,0002.33
2023-05-31 07:22:00,SystemResetWarning,0830.3,4.99,000.00,029.5,027.8,000.0,038.0,031.1,20.7,0000.0,0003.81,0012.83,0002.35
2023-05-31 07:23:00,SystemResetWarning,0830.3,5.00,000.00,029.5,027.8,000.0,038.0,031.1,20.9,0000.0,0003.80,0013.15,0002.35
2023-05-31 07:24:00,SystemResetWarning,0830.2,5.00,000.00,029.5,027.7,000.0,038.0,031.0,21.0,0000.0,0003.81,0013.95,0002.36
2023-05-31 07:25:00,SystemResetWarning,0830.2,5.00,000.00,029.5,027.7,000.0,038.0,031.0,20.3,0000.0,0003.82,0013.50,0002.37
2023-05-31 07:26:00,SystemResetWarning,0830.2,5.00,000.00,029.5,027.6,000.0,038.0,030.9,19.9,0000.0,0003.80,0013.08,0002.38
2023-05-31 07:27:00,SystemResetWarning,0830.3,5.00,000.00,029.5,027.5,000.0,037.9,030.9,19.8,0000.0,0003.78,0012.92,0002.41
2023-05-31 07:28:00,SystemResetWarning,0830.2,5.01,000.00,029.4,027.5,000.0,037.9,030.9,19.9,0000.0,0003.79,0012.47,0002.44
2023-05-31 07:29:00,SystemResetWarning,0830.3,5.00,000.00,029.4,027.5,000.0,037.9,030.9,19.9,0000.0,0003.80,0012.94,0002.50
2023-05-31 07:30:00,SystemResetWarning,0830.3,5.00,000.00,029.4,027.5,000.0,037.9,030.9,20.2,0000.0,0003.84,0013.04,0002.54
2023-05-31 07:31:00,SystemResetWarning,0830.2,5.00,000.00,029.4,027.5,000.0,037.9,030.9,20.0,0000.0,0003.90,0012.85,0002.59
2023-05-31 07:32:00,SystemResetWarning,0830.2,5.00,000.00,029.4,027.5,000.0,037.9,030.9,20.0,0000.0,0003.88,0011.90,0002.61
2023-05-31 07:33:00,SystemResetWarning,0830.2,5.00,000.00,029.4,027.5,000.0,037.9,030.9,20.0,0000.0,0003.88,0011.50,0002.65
2023-05-31 07:34:00,SystemResetWarning,0830.1,4.99,000.00,029.4,027.6,000.0,037.9,030.9,20.0,0000.0,0003.88,0010.86,0002.69
2023-05-31 07:35:00,SystemResetWarning,0830.1,5.00,000.00,029.4,027.6,000.0,037.8,030.9,19.9,0000.0,0003.85,0009.68,0002.72
2023-05-31 07:36:00,SystemResetWarning,0830.1,5.00,000.00,029.4,027.5,000.0,037.8,030.9,20.1,0000.0,0003.85,0009.34,0002.73
2023-05-31 07:37:00,SystemResetWarning,0830.0,5.00,000.00,029.3,027.5,000.0,037.8,030.8,20.2,0000.0,0003.81,0009.39,0002.73
2023-05-31 07:38:00,SystemResetWarning,0830.0,5.00,000.00,029.3,027.4,000.0,037.8,030.8,20.2,0000.0,0003.77,0009.59,0002.70
2023-05-31 07:39:00,SystemResetWarning,0830.0,5.00,000.00,029.3,027.3,000.0,037.8,030.7,20.2,0000.0,0003.74,0009.37,0002.70
2023-05-31 07:40:00,SystemResetWarning,0830.0,4.99,000.00,029.3,027.2,000.0,037.8,030.7,20.2,0000.0,0003.72,0009.03,0002.68
2023-05-31 07:41:00,SystemResetWarning,0830.0,5.01,000.00,029.2,027.2,000.0,037.7,030.7,20.2,0000.0,0003.70,0009.43,0002.66
2023-05-31 07:42:00,SystemResetWarning,0830.0,5.01,000.00,029.2,027.2,000.0,037.7,030.7,20.2,0000.0,0003.67,0009.61,0002.62
2023-05-31 07:43:00,SystemResetWarning,0829.9,5.00,000.00,029.2,027.1,000.0,037.7,030.6,20.2,0000.0,0003.65,0009.60,0002.60
2023-05-31 07:44:00,SystemResetWarning,0829.9,4.99,000.00,029.2,027.1,000.0,037.7,030.6,20.2,0000.0,0003.63,0009.82,0002.59
2023-05-31 07:45:00,SystemResetWarning,0829.9,5.00,000.00,029.2,027.1,000.0,037.7,030.6,20.1,0000.0,0003.62,0011.21,0002.57
2023-05-31 07:46:00,SystemResetWarning,0829.9,5.00,000.00,029.2,027.1,000.0,037.7,030.6,20.0,0000.0,0003.65,0011.56,0002.55
2023-05-31 07:47:00,SystemResetWarning,0829.9,5.01,000.00,029.1,027.1,000.0,037.6,030.6,20.0,0000.0,0003.65,0011.66,0002.55
2023-05-31 07:48:00,SystemResetWarning,0829.9,5.01,000.00,029.1,027.1,000.0,037.6,030.6,20.1,0000.0,0003.66,0012.18,0002.57
2023-05-31 07:49:00,SystemResetWarning,0829.9,5.00,000.00,029.1,027.1,000.0,037.6,030.6,20.0,0000.0,0003.71,0012.80,0002.58
2023-05-31 07:50:00,SystemResetWarning,0829.9,4.99,000.00,029.1,027.1,000.0,037.6,030.6,20.1,0000.0,0003.72,0012.80,0002.59
2023-05-31 07:51:00,SystemResetWarning,0829.9,4.99,000.00,029.1,027.1,000.0,037.6,030.5,20.2,0000.0,0003.75,0012.86,0002.61
2023-05-31 07:52:00,SystemResetWarning,0829.9,4.99,000.00,029.1,027.1,000.0,037.5,030.5,20.3,0000.0,0003.71,0012.29,0002.61
2023-05-31 07:53:00,SystemResetWarning,0829.8,5.00,000.00,029.0,027.0,000.0,037.5,030.5,20.4,0000.0,0003.67,0011.88,0002.60
2023-05-31 07:54:00,SystemResetWarning,0829.9,5.00,000.00,029.0,027.0,000.0,037.5,030.5,20.5,0000.0,0003.75,0012.40,0002.60
2023-05-31 07:55:00,SystemResetWarning,0829.9,5.00,000.00,029.0,027.0,000.0,037.5,030.5,20.4,0000.0,0003.78,0012.55,0002.59
2023-05-31 07:56:00,SystemResetWarning,0829.8,5.00,000.00,029.0,027.0,000.0,037.5,030.5,20.5,0000.0,0003.79,0011.76,0002.59
2023-05-31 07:57:00,SystemResetWarning,0829.8,5.00,000.00,029.0,027.0,000.0,037.5,030.5,20.5,0000.0,0003.78,0010.57,0002.58
2023-05-31 07:58:00,SystemResetWarning,0829.8,4.99,000.00,029.0,027.1,000.0,037.4,030.5,20.6,0000.0,0003.77,0010.39,0002.57
2023-05-31 07:59:00,SystemResetWarning,0829.8,5.00,000.00,029.0,027.1,000.0,037.4,030.4,20.6,0000.0,0003.71,0010.21,0002.53
